CAPE
15 1 0 0 1 4 0 0 0 0 0 0 0 0 0 0 0 0 0 0 0 0 0 0 0 0 0 0 0 0 0 0
4 4 7 14 7 0 0 0 0 0 0 0 0 0 0 0 0 0 0 0 0 0 0 0 0 0 0 0 0 0 0 0
2 7 15 18 2 0 0 0 0 0 0 0 2 0 0 0 0 0 0 0 0 0 0 0 0 0 0 0 0 0 0 0
5 5 2 0 0 0 0 3 5 1 9 3 3 1 0 0 0 0 0 0 0 0 0 0 0 0 0 0 0 0 0 0
3 0 0 0 0 0 1 1 2 11 10 0 5 6 9 7 4 1 2 0 0 0 0 0 0 0 0 0 0 0 0 0
0 0 0 0 0 0 0 4 4 20 13 11 12 10 14 14 9 6 5 0 0 0 0 0 0 0 0 0 0 0 0 0
0 0 0 0 0 3 17 16 12 19 23 12 14 20 20 16 9 5 4 1 0 0 0 0 0 0 0 1 1 0 0 0
0 0 0 0 8 7 7 9 7 16 13 10 13 13 15 5 1 2 3 1 0 0 0 0 0 0 0 0 0 0 0 0
0 0 0 0 0 0 0 0 2 2 1 4 4 1 1 3 0 1 2 0 1 1 0 0 0 0 0 0 0 0 0 0
0 0 0 0 0 0 0 0 0 0 0 0 0 0 0 0 0 0 3 1 1 0 0 0 1 1 0 1 1 0 0 0
0 0 0 0 0 0 4 6 0 0 0 0 0 0 0 0 0 1 2 1 1 2 3 6 6 6 5 4 2 5 3 2
0 0 0 0 0 0 0 0 0 0 0 0 0 0 0 0 0 0 1 1 2 6 13 14 15 12 7 6 11 8 8 11
0 0 0 0 0 0 0 0 0 0 0 0 0 0 0 0 0 1 3 4 8 19 23 26 25 23 17 13 13 16 16 7
0 0 0 0 0 0 0 0 0 0 0 0 0 0 1 1 1 3 6 9 16 24 31 31 29 29 30 27 22 11 5 3
0 0 0 0 0 0 0 0 0 0 0 0 0 0 0 4 4 6 9 14 14 23 33 38 35 36 44 54 44 27 25 16
1 0 1 0 0 0 0 0 0 0 0 0 0 0 0 0 1 5 10 12 17 19 19 34 51 44 35 32 47 50 80 41
1 2 1 0 0 0 0 0 0 0 0 0 0 0 0 0 0 0 4 7 11 19 25 32 36 56 71 48 39 44 40 81
2 7 0 0 0 0 0 0 0 0 0 0 0 0 0 0 0 0 2 6 10 13 15 22 34 60 36 38 45 75 33 62
5 4 0 0 0 0 0 0 0 0 0 0 0 0 0 0 0 0 2 5 9 10 11 12 30 33 34 38 42 52 44 36
6 0 0 0 0 0 0 0 0 0 0 0 0 0 0 2 1 3 5 9 10 13 14 18 32 48 31 36 39 36 23 35
CIN
0 0 0 0 0 0 0 0 0 0 0 0 0 0 0 0 0 0 0 0 0 0 0 0 0 0 0 0 0 0 0 0
0 0 0 0 0 0 0 0 0 0 0 0 0 0 0 0 0 0 0 0 0 0 0 0 0 0 0 0 0 0 0 0
0 0 0 0 0 0 0 0 0 0 0 0 0 0 0 0 0 0 0 0 0 0 0 0 0 0 0 0 0 0 0 0
0 0 0 0 0 0 0 0 0 0 0 0 0 0 0 0 0 0 0 0 0 0 0 0 0 0 0 0 0 0 0 0
0 0 0 0 0 0 0 -1 0 0 -2 0 0 0 0 0 0 0 0 0 0 0 0 0 0 0 0 0 0 0 0 0
0 0 0 0 0 0 0 0 0 0 -1 0 0 0 0 0 0 0 0 0 0 0 0 0 0 0 0 0 0 0 0 0
0 0 0 0 0 0 0 0 0 0 -1 -1 0 0 0 0 0 0 0 0 0 0 0 0 0 0 0 0 0 0 0 0
0 0 0 0 0 0 0 0 0 0 -1 -1 0 0 0 0 0 0 0 0 0 0 0 0 0 0 0 0 0 0 0 0
0 0 0 0 0 0 0 0 0 0 0 0 0 0 0 0 0 0 0 0 0 0 0 0 0 0 0 0 0 0 0 0
0 0 0 0 0 0 0 0 0 0 0 0 0 0 0 0 0 0 0 0 0 0 0 0 0 0 0 0 0 0 0 0
0 0 0 0 0 -1 0 -1 0 0 0 0 0 0 0 0 0 0 0 0 0 0 0 0 0 0 0 0 0 0 0 0
0 0 0 0 0 0 0 0 0 0 0 0 0 0 0 0 0 0 0 0 0 0 0 0 0 0 0 0 0 0 0 0
0 0 0 0 0 0 0 0 0 0 0 0 0 0 0 0 0 0 0 0 0 0 0 0 0 0 0 0 0 0 0 0
0 0 0 0 0 0 0 0 0 0 0 0 0 0 0 0 0 0 0 0 0 0 0 0 0 0 0 0 0 0 0 -1
0 0 0 0 0 0 0 0 0 0 0 0 0 0 0 0 0 0 0 0 0 0 0 0 0 0 0 0 0 0 0 0
0 0 0 0 0 0 0 0 0 0 0 0 0 0 0 0 0 0 0 0 0 0 0 0 0 0 0 0 0 0 0 0
0 0 0 0 0 0 0 0 0 0 0 0 0 0 0 0 0 0 0 0 0 0 0 0 0 0 0 0 0 0 0 0
0 0 0 0 0 0 0 0 0 0 0 0 0 0 0 0 0 0 0 0 0 0 0 0 0 0 0 0 0 0 0 0
0 0 0 0 0 0 0 0 0 0 0 0 0 0 0 0 0 0 0 0 0 0 0 0 0 0 0 0 0 0 0 0
0 0 0 0 0 0 0 0 0 0 0 0 0 0 0 0 0 0 0 0 0 0 0 0 0 0 0 0 0 0 0 0
Wind_Speed
12 12 13 13 10 11 10 10 9 8 8 8 6 5 7 8 9 12 12 12 11 12 12 13 14 13 12 14 17 18 14 10
11 11 11 11 11 9 8 6 7 6 6 3 6 6 0 5 8 12 12 12 12 12 13 14 15 13 10 9 16 19 13 11
9 9 7 7 8 7 7 7 6 6 6 2 10 7 8 13 6 3 5 7 8 8 9 12 15 18 12 8 15 8 10 9
9 10 10 6 4 1 0 3 2 3 5 9 6 8 5 8 5 6 7 3 13 7 8 13 11 10 9 11 7 11 9 9
10 10 6 4 1 3 3 5 5 4 4 7 8 8 7 7 7 7 8 9 7 10 11 8 11 9 9 9 10 9 8 8
9 7 6 5 7 8 6 5 4 5 6 4 9 7 8 8 7 9 8 7 10 10 8 9 11 11 10 10 10 9 8 7
9 6 6 8 4 5 5 5 6 8 6 8 8 9 8 9 9 9 8 8 10 10 10 10 11 11 10 10 10 11 10 8
8 8 4 3 4 7 6 7 8 5 5 5 8 9 9 10 10 10 9 9 10 10 10 10 10 10 11 11 11 11 11 10
4 1 2 8 9 8 6 6 7 7 7 8 10 11 11 11 10 9 9 10 12 10 11 10 11 11 13 11 11 12 11 11
3 3 9 7 7 5 6 7 7 7 7 7 11 11 11 11 10 9 10 10 10 10 10 11 11 11 11 10 10 12 12 11
6 8 9 9 6 5 4 4 6 6 7 7 11 11 12 11 10 9 11 10 9 9 10 11 11 11 11 10 11 10 11 9
9 8 9 8 8 8 8 7 6 7 7 8 10 10 12 11 10 11 10 10 10 10 12 11 11 11 11 12 11 10 9 8
9 9 11 10 8 8 8 8 8 7 7 8 9 10 11 11 9 11 11 10 11 12 11 13 10 11 10 11 11 13 10 5
8 9 10 11 10 8 8 7 8 6 8 8 10 10 11 11 11 11 12 11 13 12 12 11 10 11 11 11 11 11 11 9
8 10 10 10 12 9 8 8 7 8 9 9 11 11 11 11 12 11 12 12 11 13 12 14 12 12 13 10 10 10 11 12
8 9 10 10 11 10 12 10 9 8 9 10 10 12 11 11 12 13 13 11 13 12 12 13 13 12 11 11 12 12 10 12
7 8 10 10 10 10 9 10 9 9 9 13 12 11 12 13 13 14 13 10 12 14 14 14 12 12 10 10 12 10 12 11
7 9 8 9 9 10 10 11 11 10 12 10 10 10 10 13 15 13 13 13 13 13 14 16 14 11 11 12 11 10 10 9
7 8 8 9 9 10 10 11 11 12 12 11 13 10 11 13 15 14 12 14 14 14 14 15 14 11 12 10 10 8 8 9
9 9 9 9 10 11 10 10 9 9 11 11 10 11 11 15 14 14 15 15 14 14 12 12 12 11 14 11 10 9 8 8
Wind_Direction
117 113 109 101 93 94 90 93 78 73 59 39 38 39 39 28 11 8 4 359 356 346 343 337 329 324 326 327 319 310 300 284
121 144 136 132 105 83 88 80 96 85 71 29 303 213 286 90 11 18 358 352 346 344 337 327 314 301 283 305 311 299 261 318
120 115 94 101 108 110 161 157 164 184 183 152 269 359 345 336 74 354 311 322 307 306 307 304 294 281 258 263 290 294 335 305
100 80 56 56 62 294 319 241 45 23 1 333 348 337 359 298 306 231 290 295 314 321 293 279 292 336 322 323 329 333 301 305
97 70 52 332 40 316 6 338 351 328 57 354 325 326 357 336 325 337 333 330 337 325 322 333 336 319 325 320 324 315 313 314
75 71 48 13 326 21 306 336 331 349 6 349 343 336 342 338 328 323 325 337 327 335 324 333 314 310 301 304 309 309 314 314
45 56 40 28 345 298 344 343 356 343 360 16 351 329 336 327 327 317 324 336 330 326 321 331 314 311 313 306 307 304 299 294
52 37 13 302 330 352 346 9 338 359 353 10 342 339 344 325 321 329 328 345 331 320 328 318 319 315 311 313 308 305 301 301
55 47 346 8 8 1 10 19 334 353 356 4 12 342 345 334 321 326 336 340 316 322 327 324 321 317 315 312 313 311 308 308
51 18 34 40 9 14 357 15 345 358 356 357 15 339 348 334 328 331 351 319 322 328 328 327 321 321 316 316 317 306 306 302
65 45 37 5 26 344 334 14 357 3 354 4 359 337 346 337 324 333 335 316 322 326 336 324 322 316 313 314 312 307 305 315
61 39 22 353 6 357 355 358 3 356 355 12 354 348 338 337 326 338 323 321 325 337 319 321 311 314 315 316 302 306 294 311
42 41 22 2 15 359 355 353 348 351 349 356 340 351 338 330 329 325 323 329 323 311 308 310 311 313 311 311 316 301 310 252
48 31 31 15 359 4 351 342 339 354 355 341 353 340 334 328 333 326 329 317 310 312 314 306 311 309 311 311 313 319 304 352
41 32 25 23 2 9 353 344 348 1 346 348 344 342 335 331 327 327 325 311 316 314 310 309 310 311 302 302 309 302 309 307
38 27 25 22 20 2 352 353 351 350 348 349 330 340 336 332 337 334 319 322 312 321 319 317 306 303 308 306 303 301 301 304
35 22 25 19 8 7 355 359 346 345 352 337 346 339 342 343 347 331 329 319 326 322 317 316 307 302 304 312 308 304 296 296
29 20 26 18 8 4 3 357 346 343 351 342 343 343 342 346 342 333 327 330 330 324 322 310 314 313 314 314 313 307 302 304
7 22 27 18 7 5 5 358 351 343 349 346 335 341 343 347 339 336 333 332 328 325 320 315 310 320 315 311 311 316 315 309
19 14 22 14 9 4 3 359 353 346 349 344 339 338 338 339 338 333 333 330 328 325 318 311 325 330 318 308 305 305 303 299